Theodore Roosevelt National Park, ND

3:43 PM MDT on September 02, 2015 (GMT -0600)
Southview | | Change Station
CLOSE
Current Station
Personal Weather Station
Location: Dickinson, ND
Elevation: 2434 ft
Nearby Weather Stations

Elev 2434 ft 46.86 °N, 102.78 °W | Updated 9 minutes ago

Clear
Clear
98.0 °F
Feels Like 94 °F
N
7.3
Wind Variable Wind from SSE

Today
High -- | Low -- °F
--% Chance of Precip.
Yesterday
High -- | Low -- °F
Precip. -- in
6:11 AM 7:28 PM
Waning Gibbous, 77% visible
Pressure 29.65 in
Visibility 10.0 miles
Clouds Clear
Heat Index 94 °F
Dew Point 46 °F
Humidity 17%
Rainfall 0.00 in
Snow Depth Not available.
UV 6 out of 12
Pollen 10.40 out of 12
Air Quality Not available.
Flu Activity Not available.
METAR KDIK 022056Z AUTO 20010G18KT 10SM CLR 36/07 A2972 RMK AO2 SLP041 T03610067 58016
Pressure 29.65 in
Visibility 10.0 miles
Clouds Clear
Heat Index 94 °F
Dew Point 46 °F
Humidity 17%
Rainfall 0.00 in
Snow Depth Not available.
UV 6 out of 12
Pollen 10.40 out of 12
Air Quality Not available.
Flu Activity Not available.
METAR KDIK 022056Z AUTO 20010G18KT 10SM CLR 36/07 A2972 RMK AO2 SLP041 T03610067 58016

10-Day Weather Forecast

×

Almanac

Astronomy

Sep. 02, 2015 Rise Set
Actual Time
Civil Twilight
Nautical Twilight
Astronomical Twilight
Moon
Length of Visible Light
Length of Day
Tomorrow will be .
, % of the Moon is Illuminated

Today's Extremes

State Highs State Lows

Community

WunderPhotos

Upload Photos

1,851,818 photos uploaded!

WunderBlogs® & News

Nearby

Air Quality

  Air Quality AQ Index Pollutant
Not available.

Snow Depth

Station Depth Elevation

Earthquake Activity

City Distance Mag. Time & Date
Minimum magnitude displayed is 2.5.

Coastal Water Temperatures

Place Temperature

Stations

Nearby Weather Stations

Station Location Temp. Windchill Dew Point Humidity Wind Precip. Elev Updated Type